Wind_Speed
45 46 47 48 48 48 47 47 46 46 46 46 46 46 46 46 47 47 47 48 48 47 46 46 47 47 47 48 48 48 47 48 49 49 49 50 50 51 51 51 51 52 51
45 45 46 47 48 48 47 46 46 45 45 45 45 46 46 47 47 48 47 47 47 46 46 46 46 47 47 47 48 48 48 48 48 48 49 50 51 51 51 52 52 52 51
44 44 44 45 46 46 46 46 45 45 45 44 45 45 45 46 47 47 47 47 47 46 46 46 47 47 48 48 48 49 49 48 49 49 50 50 51 52 52 53 52 52 52
44 44 44 44 44 44 44 44 44 44 43 43 43 44 44 45 46 46 46 46 46 46 46 47 47 48 48 49 49 49 49 49 49 50 50 50 51 51 52 52 52 53 54
44 44 44 44 44 44 44 44 44 44 44 43 44 44 44 44 45 45 46 46 46 46 47 47 48 48 48 49 50 50 49 49 50 50 50 50 50 51 51 51 52 53 54
42 43 44 43 44 44 44 45 45 45 44 44 44 44 44 44 44 45 46 46 46 46 46 46 47 47 48 48 49 49 49 49 50 50 50 50 51 52 52 52 53 53 54
41 41 42 42 43 44 45 45 45 45 44 43 43 43 44 44 45 45 46 46 46 47 47 46 47 47 47 48 49 50 50 49 50 50 50 51 52 52 52 52 53 53 54
39 40 41 42 42 43 44 44 44 45 44 44 43 44 44 44 45 46 47 46 46 47 47 47 48 48 48 49 49 50 50 50 50 51 51 52 52 53 53 53 53 54 55
38 39 40 41 42 42 43 44 44 44 44 44 43 44 44 44 45 46 47 47 47 47 47 48 48 48 49 49 49 49 49 50 50 51 51 51 52 52 52 53 53 54 54
38 39 39 40 41 42 43 44 44 45 44 44 44 44 44 44 45 45 47 47 47 47 47 48 49 49 49 49 49 49 49 49 50 50 51 51 52 52 52 52 52 53 53
37 38 38 39 39 40 41 42 43 44 44 44 44 44 44 44 45 46 47 47 47 47 47 47 47 48 48 49 49 49 49 50 50 50 50 50 50 51 51 50 50 50 50
37 38 39 39 40 40 41 41 42 42 43 43 43 44 44 44 44 45 45 45 46 46 46 47 47 48 48 48 49 49 50 50 49 49 49 49 49 49 49 49 49 49 48
38 38 38 38 39 40 41 42 42 42 42 41 42 42 43 43 43 44 44 44 45 45 46 47 47 48 48 48 48 48 48 48 48 48 48 48 48 48 48 48 48 47 47
36 37 37 38 38 38 39 40 40 41 40 40 40 41 41 42 43 43 44 44 44 45 45 46 45 46 46 46 47 47 47 47 47 46 46 46 47 47 47 47 47 46 45
35 35 35 35 36 36 37 37 38 39 40 39 40 40 40 41 41 42 43 43 44 44 45 45 44 44 44 45 45 46 46 46 47 46 46 46 46 47 47 46 46 45 45
35 35 34 34 34 34 35 36 37 38 39 40 39 39 40 40 41 41 41 42 42 43 43 42 43 43 44 44 44 44 45 45 46 46 46 46 46 46 46 46 45 44 44
35 35 35 34 34 34 35 35 35 36 37 38 38 39 39 39 40 41 41 42 42 43 42 42 42 43 43 43 43 43 43 44 45 45 45 45 45 45 45 45 44 43 43
33 33 34 34 34 34 34 35 35 36 36 37 38 38 38 39 40 41 41 42 42 42 42 42 42 42 42 42 42 42 42 42 42 43 43 44 44 43 43 43 42 42 42
32 32 33 33 34 34 34 34 35 35 36 37 37 38 39 39 39 40 40 41 41 41 42 41 41 41 41 41 41 41 41 41 41 41 42 42 41 41 41 41 40 40 40
31 31 32 33 33 34 34 35 35 36 36 37 37 38 39 39 39 39 40 40 41 41 41 41 41 41 41 41 41 41 41 41 41 41 41 41 40 41 40 40 39 39 39
29 30 31 31 32 33 33 34 34 35 35 36 37 38 38 39 39 39 40 40 41 41 41 41 41 41 41 41 41 41 41 41 41 41 40 40 40 40 40 40 40 39 39
29 29 29 30 30 31 32 32 33 33 34 35 36 36 37 37 38 39 40 40 40 40 40 41 40 40 40 40 40 40 40 40 40 39 39 39 39 38 39 39 39 39 38
29 29 29 29 30 30 31 32 32 33 33 34 34 35 36 37 37 38 38 38 38 38 38 39 39 39 39 39 39 39 39 39 39 39 39 38 38 38 38 38 38 38 38
29 29 30 31 31 32 32 32 33 33 33 34 34 34 34 35 36 36 36 36 36 36 36 37 37 38 38 38 37 37 37 37 37 37 37 37 36 36 36 36 36 36 36
30 31 31 32 32 33 33 33 33 33 33 33 33 33 34 34 34 34 34 35 34 34 35 35 36 36 36 36 35 35 35 36 36 36 36 36 35 35 35 34 34 35 35
31 31 32 32 33 33 33 33 33 33 32 33 33 33 33 33 33 33 33 33 33 33 33 34 34 34 34 34 33 33 34 34 34 34 33 33 33 34 33 33 33 33 32
Wind_Direction
257 258 258 257 258 259 260 260 260 261 262 263 264 263 262 261 260 260 261 261 260 260 261 262 263 264 264 264 264 264 265 265 264 264 265 265 265 265 267 267 268 269 269
257 258 258 258 258 258 259 259 260 260 261 263 263 263 262 261 260 260 261 261 260 260 261 262 262 264 265 265 264 264 265 265 265 265 265 266 266 266 267 268 269 270 270
256 258 259 260 260 259 259 259 259 260 261 263 262 263 262 261 261 260 260 260 259 260 261 263 263 264 265 265 264 265 266 266 266 266 267 267 267 267 268 269 270 271 270
257 258 259 260 260 259 259 259 259 260 261 263 263 263 263 262 261 261 261 260 259 260 262 263 263 265 265 265 265 267 267 267 268 268 267 267 268 268 269 269 270 271 272
259 259 260 260 260 260 259 259 259 260 262 263 264 263 263 263 263 261 261 260 261 261 263 263 264 264 265 265 265 267 268 268 269 269 268 268 268 269 270 270 271 272 272
261 260 260 260 260 260 260 260 259 260 262 263 263 263 263 264 264 263 262 261 262 263 264 264 263 264 265 266 267 268 269 269 269 269 269 268 269 270 271 272 272 272 272
262 261 261 261 261 261 261 261 260 260 262 263 263 264 264 264 264 263 262 262 263 264 265 264 263 263 265 267 268 269 269 270 270 270 270 269 270 271 272 272 272 272 273
263 262 262 262 262 262 262 262 261 260 261 263 264 264 263 263 263 263 262 262 264 264 264 264 264 264 266 267 268 269 269 270 270 271 271 271 271 271 272 273 273 273 273
263 263 263 262 262 261 261 261 261 261 262 264 263 263 263 263 262 262 263 263 265 265 264 264 264 265 266 267 268 269 269 270 271 272 272 272 272 272 272 273 274 274 274
263 263 263 263 262 262 262 262 261 261 263 263 262 264 264 263 263 263 264 264 265 265 265 265 265 266 266 267 268 269 269 270 271 272 273 273 273 273 273 274 274 273 274
264 264 264 264 265 264 264 263 262 263 264 263 263 263 264 263 264 265 265 266 265 266 265 265 265 265 266 266 268 268 269 270 271 272 273 273 273 273 273 274 274 274 274
265 265 265 265 265 265 265 264 265 265 266 266 265 265 264 264 264 265 265 265 266 266 266 265 265 266 266 267 268 269 270 271 271 272 273 274 273 273 273 273 274 275 275
267 267 267 267 268 267 267 266 266 267 267 267 266 266 265 265 265 265 265 265 265 266 266 266 266 266 267 268 269 270 270 271 271 272 273 274 273 273 273 272 274 275 275
269 269 269 270 270 269 269 268 267 266 266 267 267 267 266 265 265 265 266 266 266 266 266 267 267 268 268 269 270 270 270 271 271 272 273 274 273 273 273 273 274 274 274
270 269 269 270 271 270 269 268 267 266 265 266 267 267 267 267 266 266 267 267 267 267 267 267 268 268 268 269 270 271 270 271 272 272 273 273 274 273 273 273 274 274 274
271 270 270 271 270 270 269 268 267 267 267 267 268 268 267 267 267 267 267 268 268 268 268 268 269 269 269 270 271 271 271 271 271 271 272 273 273 273 273 273 274 273 273
271 271 271 271 271 271 270 269 269 269 269 270 269 269 268 267 267 267 267 268 269 270 269 269 270 271 271 271 271 272 272 272 272 272 272 273 273 274 274 273 272 272 273
273 273 273 272 272 272 272 271 271 270 270 270 270 269 269 268 268 268 269 269 270 271 270 270 270 271 271 271 271 272 272 273 273 273 273 273 273 274 274 273 272 273 273
274 273 273 272 272 273 273 273 273 272 271 271 270 270 269 269 269 270 271 271 271 271 270 270 270 270 271 270 271 272 272 273 273 274 274 274 274 274 274 273 272 273 274
276 275 274 273 273 273 273 274 274 274 273 272 271 271 270 270 270 271 271 272 271 271 270 269 270 270 271 271 271 271 271 272 274 275 275 274 273 273 273 273 272 273 274
281 279 277 275 275 274 275 275 275 275 274 274 273 272 272 272 271 271 271 271 271 271 270 270 270 270 270 271 271 271 272 273 274 274 274 273 273 273 273 272 271 272 274
284 282 280 279 277 276 276 276 276 276 275 275 274 274 274 273 273 273 272 272 271 270 269 269 269 270 270 271 271 271 272 272 273 273 272 272 273 273 273 272 272 272 274
285 284 282 281 280 279 279 278 278 277 277 276 275 275 275 275 274 274 273 273 272 271 271 270 270 270 270 270 272 271 270 270 271 272 272 271 272 272 272 272 273 273 274
286 285 283 282 282 281 280 279 279 278 278 277 276 276 276 276 275 274 273 273 272 271 271 270 270 271 271 271 271 271 270 270 270 272 272 272 272 272 272 272 273 274 274
287 286 284 283 282 282 281 280 279 279 278 278 277 277 277 277 276 275 275 274 273 272 271 270 270 271 270 270 269 269 269 269 270 271 272 272 271 271 272 273 274 274 274
290 288 286 285 283 282 281 281 280 279 279 278 277 277 277 277 277 276 276 274 273 272 272 272 272 271 270 270 269 269 269 269 270 271 271 271 270 271 271 272 273 274 273
Height
5584 5585 5586 5587 5588 5589 5591 5592 5593 5594 5594 5595 5595 5596 5597 5598 5599 5600 5602 5604 5606 5608 5610 5612 5613 5615 5616 5617 5618 5620 5621 5623 5625 5626 5627 5628 5629 5631 5632 5633 5634 5635 5635
5572 5573 5574 5574 5575 5577 5578 5580 5581 5582 5582 5583 5583 5584 5584 5585 5587 5588 5590 5592 5594 5597 5598 5600 5601 5602 5603 5605 5606 5607 5608 5609 5611 5613 5614 5614 5615 5617 5618 5619 5620 5620 5621
5559 5561 5561 5562 5563 5564 5566 5567 5569 5570 5570 5571 5571 5572 5573 5574 5575 5576 5578 5580 5582 5584 5586 5587 5589 5590 5591 5592 5593 5594 5595 5596 5598 5599 5600 5600 5601 5602 5604 5605 5605 5605 5606
5547 5548 5549 5550 5551 5552 5553 5555 5557 5558 5559 5559 5560 5561 5561 5562 5563 5565 5566 5568 5570 5572 5574 5575 5576 5578 5579 5580 5581 5582 5582 5583 5584 5585 5586 5587 5588 5588 5589 5590 5591 5591 5591
5535 5536 5537 5538 5538 5540 5541 5543 5544 5546 5547 5547 5548 5549 5550 5551 5552 5553 5555 5557 5558 5560 5561 5563 5564 5565 5566 5567 5568 5569 5569 5570 5571 5571 5572 5573 5574 5574 5575 5575 5576 5576 5576
5523 5524 5525 5525 5526 5527 5529 5531 5532 5534 5535 5536 5537 5538 5539 5540 5540 5541 5543 5545 5547 5548 5549 5550 5551 5553 5553 5554 5555 5555 5556 5556 5557 5558 5558 5559 5559 5559 5560 5560 5561 5561 5561
5511 5512 5513 5513 5514 5515 5517 5519 5520 5522 5523 5524 5525 5526 5527 5528 5528 5529 5531 5533 5534 5536 5536 5537 5538 5539 5540 5541 5541 5542 5542 5542 5543 5544 5544 5544 5545 5545 5545 5546 5545 5544 5545
5500 5501 5501 5502 5503 5504 5505 5506 5508 5510 5511 5512 5513 5514 5515 5516 5516 5517 5518 5520 5522 5523 5523 5524 5525 5526 5527 5527 5528 5528 5528 5529 5529 5529 5530 5530 5529 5529 5529 5530 5529 5529 5529
5489 5489 5490 5490 5491 5492 5493 5494 5496 5498 5499 5500 5501 5502 5503 5504 5504 5505 5506 5508 5509 5510 5510 5511 5512 5513 5513 5514 5515 5515 5515 5515 5515 5515 5514 5514 5514 5514 5513 5513 5513 5514 5514
5478 5478 5478 5479 5480 5480 5481 5482 5484 5485 5486 5487 5488 5489 5490 5491 5492 5492 5493 5494 5496 5496 5497 5498 5498 5499 5499 5500 5500 5501 5501 5501 5501 5500 5500 5499 5499 5499 5498 5498 5498 5497 5497
5467 5467 5468 5468 5468 5469 5469 5470 5471 5472 5474 5475 5476 5477 5478 5478 5479 5479 5480 5481 5482 5483 5484 5484 5485 5485 5485 5486 5486 5486 5486 5486 5486 5486 5486 5485 5484 5484 5483 5483 5482 5482 5482
5456 5456 5457 5457 5457 5457 5458 5458 5459 5460 5461 5462 5463 5464 5464 5465 5466 5466 5467 5467 5468 5469 5470 5471 5471 5471 5471 5471 5472 5472 5472 5471 5471 5471 5471 5471 5471 5470 5469 5468 5468 5467 5466
5446 5446 5445 5445 5446 5446 5446 5447 5447 5448 5448 5449 5450 5451 5452 5452 5453 5453 5454 5455 5455 5456 5456 5457 5457 5457 5457 5458 5458 5457 5457 5457 5457 5457 5457 5457 5456 5456 5455 5454 5453 5453 5452
5435 5435 5434 5434 5434 5434 5434 5435 5435 5436 5436 5437 5437 5438 5439 5440 5440 5441 5441 5442 5442 5443 5443 5443 5443 5443 5444 5444 5444 5444 5443 5443 5443 5443 5443 5443 5442 5441 5441 5440 5440 5439 5439
5424 5424 5423 5423 5423 5423 5422 5423 5423 5424 5424 5425 5425 5426 5427 5428 5428 5428 5428 5429 5429 5429 5429 5430 5430 5430 5430 5430 5430 5430 5430 5429 5429 5429 5429 5428 5428 5427 5427 5426 5426 5425 5425
5413 5413 5413 5412 5412 5411 5411 5412 5411 5412 5412 5413 5413 5414 5414 5415 5415 5416 5416 5416 5416 5416 5417 5417 5417 5417 5417 5417 5417 5416 5416 5415 5415 5415 5415 5414 5414 5413 5413 5412 5412 5412 5411
5403 5402 5402 5402 5401 5401 5401 5401 5401 5401 5401 5401 5401 5401 5402 5402 5403 5403 5403 5404 5404 5404 5404 5404 5404 5404 5404 5404 5403 5403 5403 5402 5402 5401 5401 5401 5400 5400 5399 5399 5398 5398 5398
5392 5392 5391 5391 5390 5390 5390 5390 5390 5390 5390 5390 5389 5389 5390 5390 5391 5391 5391 5391 5391 5391 5391 5391 5391 5391 5390 5390 5390 5390 5389 5389 5388 5388 5387 5387 5387 5386 5386 5386 5385 5385 5385
5382 5381 5381 5380 5380 5380 5380 5380 5379 5379 5379 5379 5378 5378 5378 5378 5378 5378 5378 5378 5378 5378 5378 5378 5378 5378 5377 5377 5377 5377 5377 5376 5375 5375 5374 5374 5374 5373 5373 5373 5373 5373 5372
5372 5371 5370 5370 5369 5369 5369 5368 5368 5368 5367 5367 5366 5366 5366 5366 5366 5366 5366 5365 5365 5365 5365 5365 5365 5365 5365 5365 5364 5364 5364 5363 5363 5362 5362 5361 5361 5361 5361 5361 5361 5360 5360
5363 5362 5361 5360 5359 5358 5358 5357 5357 5356 5356 5355 5354 5354 5354 5354 5354 5353 5353 5353 5353 5352 5352 5352 5352 5352 5352 5352 5352 5351 5351 5351 5350 5350 5349 5349 5348 5348 5348 5348 5348 5348 5347
5354 5353 5351 5350 5349 5348 5347 5347 5346 5345 5344 5343 5343 5342 5342 5341 5341 5341 5340 5340 5339 5339 5339 5339 5339 5339 5339 5339 5338 5338 5338 5338 5337 5337 5337 5337 5336 5336 5336 5336 5336 5336 5335
5345 5343 5342 5340 5339 5338 5337 5336 5335 5334 5333 5332 5331 5331 5330 5329 5329 5328 5327 5326 5326 5326 5325 5325 5326 5326 5326 5325 5325 5325 5325 5325 5325 5325 5325 5324 5324 5324 5324 5324 5324 5324 5324
5335 5334 5332 5331 5329 5328 5327 5325 5324 5323 5322 5321 5320 5319 5318 5317 5316 5316 5315 5314 5313 5313 5313 5313 5313 5313 5313 5313 5313 5313 5313 5313 5313 5313 5313 5313 5313 5313 5313 5313 5313 5313 5312
5326 5324 5322 5320 5319 5317 5316 5315 5313 5312 5311 5310 5309 5308 5307 5306 5305 5304 5303 5302 5302 5302 5301 5301 5301 5301 5301 5301 5301 5301 5301 5301 5301 5301 5301 5302 5302 5302 5302 5302 5302 5301 5301
5316 5314 5312 5310 5308 5307 5305 5304 5303 5301 5300 5299 5298 5297 5296 5295 5294 5293 5292 5291 5291 5290 5290 5290 5290 5290 5290 5289 5289 5289 5290 5290 5290 5290 5290 5291 5291 5291 5291 5291 5291 5290 5290